NEWPRT Weather Reports


Display with metric or nautical units.
time (UTC)temp
F
wind
direction
speed
MPH
gust
MPH
rain 1hr
in
rain 24hr
in
rain mn
in
humidity
%
barometer
mb
20260901235651 0 162 0.0 6.0 0.00 0.04 0.00 53
20260901235128 0 163 1.0 5.0 0.00 0.04 0.00 53
20260901234605 0 149 1.0 6.0 0.00 0.04 0.00 54
20260901234042 0 247 0.0 6.0 0.00 0.04 0.00 56
20260901233519 0 137 2.0 6.0 0.00 0.04 0.04 55
20260901232956 0 141 1.0 6.0 0.00 0.04 0.04 53
20260901232433 0 54 0.0 6.0 0.00 0.04 0.04 53
20260901231910 0 180 2.0 6.0 0.00 0.04 0.04 52
20260901231347 0 141 1.0 6.0 0.00 0.04 0.04 54
20260901230824 0 78 2.0 6.0 0.00 0.04 0.04 53
20260901230301 0 169 0.0 6.0 0.00 0.04 0.04 53
20260901225738 0 113 1.0 5.0 0.00 0.04 0.04 52
20260901225215 0 135 1.0 4.0 0.00 0.04 0.04 52
20260901224652 0 140 0.0 5.0 0.00 0.04 0.04 50
20260901224129 0 320 0.0 5.0 0.00 0.04 0.04 51
20260901223606 0 176 2.0 5.0 0.00 0.04 0.04 49
20260901223043 0 47 0.0 4.0 0.00 0.04 0.04 49
20260901222520 0 138 0.0 4.0 0.00 0.04 0.04 45
20260901221956 0 134 0.0 6.0 0.04 0.04 0.04 46
20260901221434 0 84 0.0 6.0 0.04 0.04 0.04 44
20260901220910 0 190 0.0 2.0 0.04 0.04 0.04 40
20260901220347 0 148 0.0 4.0 0.04 0.04 0.04 47
20260901215824 0 212 0.0 4.0 0.04 0.04 0.04 43
20260901215301 0 235 0.0 7.0 0.04 0.04 0.04 44
20260901214738 0 190 0.0 7.0 0.04 0.04 0.04 37
20260901214215 0 43 1.0 7.0 0.04 0.04 0.04 42
20260901213652 0 168 1.0 6.0 0.04 0.04 0.04 44
20260901213129 0 250 1.0 6.0 0.04 0.04 0.04 44
20260901212606 0 74 0.0 4.0 0.04 0.04 0.04 44
20260901212043 0 149 0.0 5.0 0.00 0.04 0.04 46
20260901211520 0 149 0.0 5.0 0.00 0.04 0.04 44
20260901210957 0 151 0.0 6.0 0.00 0.04 0.04 44
20260901210434 0 2 1.0 6.0 0.00 0.04 0.04 45
20260901205911 0 214 2.0 6.0 0.00 0.04 0.04 44
20260901205348 0 179 0.0 6.0 0.00 0.04 0.04 48
20260901204826 0 156 1.0 4.0 0.00 0.04 0.04 46
20260901204303 0 334 1.0 5.0 0.00 0.04 0.04 47
20260901203739 0 78 1.0 5.0 0.00 0.04 0.04 45
20260901203216 0 112 1.0 5.0 0.00 0.04 0.04 48
20260901202653 0 78 3.0 9.0 0.00 0.04 0.04 47
20260901202130 0 210 1.0 9.0 0.00 0.04 0.04 46
20260901201607 0 212 1.0 9.0 0.00 0.04 0.04 47
20260901201044 0 175 1.0 8.0 0.00 0.04 0.04 45
20260901200521 0 168 1.0 6.0 0.00 0.04 0.04 45
20260901195958 0 126 1.0 4.0 0.00 0.04 0.04 44
20260901195435 0 65 1.0 3.0 0.00 0.04 0.04 41
20260901194912 0 158 1.0 2.0 0.00 0.04 0.04 43
20260901194349 0 22 0.0 5.0 0.00 0.04 0.04 41
20260901193828 0 161 1.0 5.0 0.00 0.04 0.04 42
20260901193303 0 35 0.0 8.0 0.00 0.04 0.04 41
20260901192740 0 135 1.0 8.0 0.00 0.04 0.04 44
20260901192217 0 142 0.0 8.0 0.00 0.04 0.04 42
20260901191654 0 190 2.0 7.0 0.00 0.04 0.04 46
20260901191131 0 51 2.0 7.0 0.00 0.04 0.04 44
20260901190608 0 43 1.0 6.0 0.00 0.04 0.04 44
20260901190045 0 337 1.0 4.0 0.00 0.04 0.04 45
20260901185522 0 162 0.0 4.0 0.00 0.04 0.04 47
20260901184959 0 177 1.0 4.0 0.00 0.04 0.04 46
20260901184436 0 197 0.0 4.0 0.00 0.04 0.04 47
20260901183913 0 183 0.0 3.0 0.00 0.04 0.04 48
20260901183350 0 352 0.0 3.0 0.04 0.04 0.04 47
20260901182828 0 211 0.0 3.0 0.04 0.04 0.04 47
20260901182305 0 0 0.0 4.0 0.04 0.04 0.04 45
20260901181741 0 182 0.0 4.0 0.04 0.04 0.04 45
20260901181218 0 338 0.0 3.0 0.04 0.04 0.04 44
20260901180655 0 172 0.0 3.0 0.04 0.04 0.04 41
20260901180132 0 149 0.0 3.0 0.04 0.04 0.04 39
20260901175609 0 119 0.0 2.0 0.04 0.04 0.04 41
20260901175046 0 208 0.0 1.0 0.04 0.04 0.04 42
20260901174523 0 0 0.0 0.0 0.04 0.04 0.04 44
20260901174000 0 0 0.0 0.0 0.04 0.04 0.04 45
20260901173437 0 0 0.0 0.0 0.04 0.04 0.04 49
20260901172914 0 74 0.0 4.0 0.00 0.04 0.04 50
20260901172351 0 0 0.0 4.0 0.00 0.04 0.04 52
20260901171829 0 162 0.0 4.0 0.00 0.04 0.04 51
20260901171305 0 158 0.0 3.0 0.00 0.04 0.04 53
20260901170742 0 81 0.0 3.0 0.00 0.04 0.04 54
20260901170219 0 37 0.0 3.0 0.00 0.04 0.04 54
20260901165656 0 0 0.0 3.0 0.00 0.04 0.04 55
20260901165133 0 141 0.0 3.0 0.00 0.04 0.04 57
20260901164610 0 163 0.0 3.0 0.00 0.04 0.04 58
20260901164047 0 231 0.0 3.0 0.00 0.04 0.04 59
20260901163525 0 0 0.0 0.0 0.00 0.04 0.04 59
20260901163001 0 0 0.0 7.0 0.00 0.04 0.04 60
20260901162438 0 0 0.0 7.0 0.00 0.04 0.04 58
20260901161918 0 142 0.0 7.0 0.00 0.04 0.04 58
20260901161352 0 85 0.0 5.0 0.00 0.04 0.04 59
20260901160829 0 208 0.0 5.0 0.00 0.04 0.04 58
20260901160306 0 0 0.0 0.0 0.00 0.04 0.04 58
20260901155743 0 0 0.0 0.0 0.00 0.04 0.04 58
20260901155220 0 0 0.0 1.0 0.00 0.04 0.04 59
20260901154657 0 0 0.0 1.0 0.00 0.04 0.04 58
20260901154134 0 23 0.0 1.0 0.01 0.04 0.04 60
20260901153611 0 0 0.0 3.0 0.01 0.04 0.04 57
20260901153048 0 0 0.0 3.0 0.01 0.04 0.04 57
20260901152616 0 240 0.0 3.0 0.01 0.04 0.04 56
20260901152525 0 240 0.0 3.0 0.01 0.04 0.04 56
20260901152002 0 264 1.0 4.0 0.01 0.04 0.04 60
20260901151439 0 0 0.0 4.0 0.01 0.04 0.04 58
20260901150916 0 133 2.0 4.0 0.01 0.04 0.04 57
20260901150353 0 187 0.0 4.0 0.02 0.04 0.04 59
20260901145829 0 0 0.0 3.0 0.02 0.04 0.04 58
20260901145308 0 161 0.0 3.0 0.03 0.04 0.04 58
20260901144744 0 29 0.0 2.0 0.03 0.04 0.04 59
20260901144222 0 18 0.0 2.0 0.02 0.04 0.04 61
20260901143658 0 357 0.0 3.0 0.02 0.03 0.03 61
20260901143135 0 348 0.0 3.0 0.02 0.03 0.03 61
20260901142612 0 117 0.0 3.0 0.02 0.03 0.03 62
20260901142049 0 113 0.0 5.0 0.02 0.03 0.03 62
20260901141526 0 5 0.0 5.0 0.02 0.03 0.03 65
20260901141003 0 197 0.0 5.0 0.02 0.03 0.03 63
20260901140440 0 200 0.0 3.0 0.02 0.03 0.03 64
20260901135917 0 40 0.0 2.0 0.02 0.03 0.03 69
20260901135353 0 0 0.0 0.0 0.01 0.02 0.02 78
20260901134831 0 0 0.0 0.0 0.01 0.01 0.01 76
20260901134308 0 0 0.0 0.0 0.01 0.01 0.01 76
20260901133745 0 0 0.0 0.0 0.01 0.01 0.01 76
20260901133222 0 0 0.0 0.0 0.01 0.01 0.01 77
20260901132659 0 0 0.0 0.0 0.01 0.01 0.01 75
20260901132135 0 0 0.0 0.0 0.01 0.01 0.01 75
20260901131612 0 0 0.0 0.0 0.01 0.01 0.01 75
20260901131049 0 0 0.0 0.0 0.01 0.01 0.01 73
20260901130526 0 0 0.0 0.0 0.01 0.01 0.01 68
20260901130005 0 0 0.0 0.0 0.00 0.00 0.00 68
20260901125440 0 0 0.0 0.0 0.00 0.00 0.00 65
20260901124917 0 0 0.0 0.0 0.00 0.00 0.00 66
20260901124354 0 0 0.0 0.0 0.00 0.00 0.00 62
20260901123832 0 0 0.0 0.0 0.00 0.00 0.00 65
20260901123308 0 0 0.0 2.0 0.00 0.00 0.00 62
20260901122745 0 23 0.0 2.0 0.00 0.00 0.00 62
20260901122222 0 0 0.0 0.0 0.00 0.00 0.00 61
20260901121659 0 0 0.0 0.0 0.00 0.00 0.00 61
20260901121136 0 0 0.0 2.0 0.00 0.00 0.00 61
20260901120613 0 0 0.0 2.0 0.00 0.00 0.00 59
20260901120051 0 180 0.0 2.0 0.00 0.00 0.00 61
20260901115527 0 0 0.0 0.0 0.00 0.00 0.00 57
20260901115004 0 0 0.0 3.0 0.00 0.00 0.00 59
20260901114441 0 0 0.0 3.0 0.00 0.00 0.00 57
20260901113918 0 177 0.0 3.0 0.00 0.00 0.00 55
20260901113356 0 0 0.0 0.0 0.00 0.00 0.00 59
20260901112832 0 0 0.0 0.0 0.00 0.00 0.00 59
20260901112310 0 0 0.0 2.0 0.00 0.00 0.00 60
20260901111747 0 182 0.0 2.0 0.00 0.00 0.00 61
20260901111223 0 0 0.0 0.0 0.00 0.00 0.00 61
20260901110700 0 0 0.0 2.0 0.00 0.00 0.00 55
20260901110137 0 0 0.0 2.0 0.00 0.00 0.00 55
20260901105614 0 194 0.0 2.0 0.00 0.00 0.00 55
20260901105051 0 0 0.0 0.0 0.00 0.00 0.00 57
20260901104528 0 0 0.0 0.0 0.00 0.00 0.00 60
20260901104005 0 0 0.0 1.0 0.00 0.00 0.00 60
20260901103443 0 0 0.0 1.0 0.00 0.00 0.00 55
20260901102919 0 0 0.0 0.0 0.00 0.00 0.00 54
20260901102356 0 0 0.0 0.0 0.00 0.00 0.00 58
20260901100747 0 0 0.0 0.0 0.00 0.00 0.00 56
20260901100224 0 0 0.0 0.0 0.00 0.00 0.00 56
20260901095701 0 0 0.0 0.0 0.00 0.00 0.00 56
20260901095138 0 0 0.0 0.0 0.00 0.00 0.00 54
20260901094615 0 0 0.0 3.0 0.00 0.00 0.00 52
20260901094052 0 68 0.0 3.0 0.00 0.00 0.00 52
20260901093529 0 96 0.0 3.0 0.00 0.00 0.00 55
20260901093006 0 145 0.0 1.0 0.00 0.00 0.00 56
20260901092443 0 0 0.0 3.0 0.00 0.00 0.00 57
20260901091921 0 0 0.0 3.0 0.00 0.00 0.00 56
20260901091357 0 176 0.0 2.0 0.00 0.00 0.00 56
20260901090834 0 0 0.0 0.0 0.00 0.00 0.00 56
20260901090311 0 0 0.0 0.0 0.00 0.00 0.00 56
20260901085749 0 0 0.0 0.0 0.00 0.00 0.00 49
20260901085225 0 0 0.0 0.0 0.00 0.00 0.00 55
20260901084702 0 0 0.0 0.0 0.00 0.00 0.00 54
20260901084140 0 0 0.0 0.0 0.00 0.00 0.00 55
20260901083616 0 0 0.0 0.0 0.00 0.00 0.00 54
20260901083053 0 0 0.0 0.0 0.00 0.00 0.00 48
20260901082530 0 0 0.0 0.0 0.00 0.00 0.00 48
20260901082007 0 0 0.0 2.0 0.00 0.00 0.00 48
20260901081444 0 23 0.0 2.0 0.00 0.00 0.00 52
20260901080921 0 57 0.0 2.0 0.00 0.00 0.00 50
20260901080358 0 0 0.0 0.0 0.00 0.00 0.00 53
20260901075835 0 0 0.0 0.0 0.00 0.00 0.00 51
20260901075312 0 0 0.0 1.0 0.00 0.00 0.00 51
20260901074749 0 0 0.0 1.0 0.00 0.00 0.00 52
20260901074228 0 144 0.0 4.0 0.00 0.00 0.00 48
20260901073703 0 0 0.0 4.0 0.00 0.00 0.00 51
20260901073140 0 196 0.0 4.0 0.00 0.00 0.00 54
20260901072617 0 0 0.0 2.0 0.00 0.00 0.00 53
20260901072054 0 0 0.0 2.0 0.00 0.00 0.00 55
20260901071530 0 74 0.0 2.0 0.00 0.00 0.00 55
20260901071007 0 187 0.0 4.0 0.00 0.00 0.00 55
20260901070444 0 0 0.0 4.0 0.00 0.00 0.00 53
20260901065921 0 120 0.0 4.0 0.00 0.00 0.00 54
20260901065358 0 302 0.0 3.0 0.00 0.00 0.00 52
20260901064836 0 63 0.0 3.0 0.00 0.00 0.00 51
20260901064312 0 343 0.0 2.0 0.00 0.00 0.00 52
20260901063749 0 180 0.0 2.0 0.00 0.00 0.00 57
20260901063227 0 193 0.0 2.0 0.00 0.00 0.00 58
20260901062703 0 189 0.0 2.0 0.00 0.00 0.00 58
20260901062140 0 40 0.0 2.0 0.00 0.00 0.00 61
20260901061618 0 36 0.0 2.0 0.00 0.00 0.00 59
20260901061055 0 130 0.0 1.0 0.00 0.00 0.00 59
20260901060531 0 0 0.0 1.0 0.00 0.00 0.00 60
20260901060008 0 191 0.0 1.0 0.00 0.00 0.00 60
20260901055445 0 0 0.0 0.0 0.00 0.00 0.00 59
20260901054922 0 0 0.0 0.0 0.00 0.00 0.00 61
20260901054359 0 0 0.0 5.0 0.00 0.00 0.00 61
20260901053836 0 256 0.0 5.0 0.00 0.00 0.00 59
20260901053314 0 32 0.0 2.0 0.00 0.00 0.00 58
20260901052751 0 0 0.0 0.0 0.00 0.00 0.00 58
20260901052228 0 0 0.0 0.0 0.00 0.00 0.00 57
20260901051704 0 0 0.0 0.0 0.00 0.00 0.00 56
20260901051141 0 0 0.0 0.0 0.00 0.00 0.00 55
20260901050618 0 0 0.0 0.0 0.00 0.00 0.00 57
20260901050055 0 0 0.0 0.0 0.00 0.00 0.00 52
20260901045532 0 0 0.0 0.0 0.00 0.00 0.00 52
20260901045009 0 0 0.0 5.0 0.00 0.00 0.00 53
20260901044446 0 7 0.0 5.0 0.00 0.00 0.00 53
20260901043923 0 32 0.0 5.0 0.00 0.00 0.00 53
20260901043400 0 0 0.0 0.0 0.00 0.00 0.00 54
20260901042837 0 0 0.0 0.0 0.00 0.00 0.00 50
20260901042314 0 0 0.0 4.0 0.00 0.00 0.00 50
20260901041751 0 0 0.0 4.0 0.00 0.00 0.00 52
20260901041228 0 32 0.0 4.0 0.00 0.00 0.00 49
20260901040705 0 0 1.0 1.0 0.00 0.00 0.00 54
20260901040142 0 0 0.0 2.0 0.00 0.00 0.00 53
20260901035619 0 0 0.0 2.0 0.00 0.00 0.00 53
20260901035056 0 347 0.0 2.0 0.00 0.00 0.00 52
20260901034533 0 0 0.0 1.0 0.00 0.00 0.00 53
20260901034010 0 49 0.0 1.0 0.00 0.00 0.00 53
20260901033447 0 29 0.0 1.0 0.00 0.00 0.00 53
20260901032924 0 0 0.0 1.0 0.00 0.00 0.00 53
20260901032401 0 154 0.0 6.0 0.00 0.00 0.00 48
20260901031839 0 114 2.0 6.0 0.00 0.00 0.00 52
20260901031316 0 114 0.0 7.0 0.00 0.00 0.00 52
20260901030752 0 100 1.0 7.0 0.00 0.00 0.00 52
20260901030229 0 109 0.0 7.0 0.00 0.00 0.00 51
20260901025706 0 119 4.0 7.0 0.00 0.00 0.00 50
20260901025144 0 119 3.0 7.0 0.00 0.00 0.00 49
20260901024620 0 88 3.0 7.0 0.00 0.00 0.00 48
20260901024057 0 121 4.0 5.0 0.00 0.00 0.00 48
20260901023534 0 113 2.0 5.0 0.00 0.00 0.00 47
20260901023011 0 126 3.0 7.0 0.00 0.00 0.00 48
20260901022450 0 116 0.0 7.0 0.00 0.00 0.00 49
20260901021925 0 114 1.0 7.0 0.00 0.00 0.00 47
20260901021402 0 124 5.0 7.0 0.00 0.00 0.00 47
20260901020839 0 103 0.0 7.0 0.00 0.00 0.00 48
20260901020316 0 124 4.0 6.0 0.00 0.00 0.00 46
20260901015753 0 116 0.0 4.0 0.00 0.00 0.00 47
20260901015230 0 137 2.0 5.0 0.00 0.00 0.00 45
20260901014707 0 119 0.0 5.0 0.00 0.00 0.00 45
20260901014144 0 106 0.0 5.0 0.00 0.00 0.00 46
20260901013621 0 42 0.0 5.0 0.00 0.00 0.00 45
20260901013100 0 114 0.0 5.0 0.00 0.00 0.00 41
20260901012535 0 128 0.0 5.0 0.00 0.00 0.00 44
20260901012012 0 138 1.0 6.0 0.00 0.00 0.00 44
20260901011449 0 109 2.0 6.0 0.00 0.00 0.00 42
20260901010926 0 110 0.0 6.0 0.00 0.00 0.00 43
20260901010403 0 28 0.0 5.0 0.00 0.00 0.00 42
20260901005840 0 123 0.0 5.0 0.00 0.00 0.00 43
20260901005317 0 114 2.0 5.0 0.00 0.00 0.00 43
20260901004754 0 130 1.0 6.0 0.00 0.00 0.00 41
20260901004231 0 120 2.0 6.0 0.00 0.00 0.00 39
20260901003708 0 119 1.0 6.0 0.00 0.00 0.00 39
20260901003145 0 124 3.0 6.0 0.00 0.00 0.00 38
20260901002622 0 102 4.0 6.0 0.00 0.00 0.00 38
20260901002059 0 110 2.0 6.0 0.00 0.00 0.00 37
20260901001536 0 119 1.0 7.0 0.00 0.00 0.00 36
20260901001013 0 120 3.0 7.0 0.00 0.00 0.00 37
20260901000450 0 49 1.0 7.0 0.00 0.00 0.00 37
20260831235927 0 54 1.0 6.0 0.00 0.00 0.00 35